Location: Ehrke Reservoir
(40.0279°N, 99.6641°W)
Time: 09:01:42
(UTC+00:00)

Cosmos 1697 Rocket - Pass Details

Date: 20 January 2020
Orbit: 833 x 843 km, 71.0° (Epoch: 27 February)

Event Time Altitude Azimuth Distance (km) Brightness Sun altitude
Exits shadow 11:46:56 63° 291° (WNW) 925 2.6 -24.6°
Maximum altitude 11:47:01 63° 295° (WNW) 925 2.6 -24.6°
Drops below altitude 10° 11:52:35 10° 17° (NNE) 2,448 5.2 -23.5°
Sets 11:55:03 0° 21° (NNE) 3,386 6.0 -23.0°
